Location: Wildlife_Club
(35.6000°N, 81.4330°W)
Time: 18:12:49
(UTC-04:00)

Tiros 1 - Visible Passes

Search period start: 19 June 2019 00:00
Search period end: 29 June 2019 00:00
Orbit: 631 x 664 km, 48.4° (Epoch: 18 June)

Date Brightness Start Highest point End Pass type
(mag) Time Alt. Az. Time Alt. Az. Time Alt. Az.
19 Jun 8.4 02:25:21 37° NNW 02:25:21 37° NNW 02:29:35 10° NE visible
19 Jun 9.7 04:05:21 10° NW 04:08:27 17° N 04:11:33 10° NE visible
20 Jun 9.1 01:11:57 23° NE 01:11:57 23° NE 01:13:41 10° NE visible
20 Jun 9.2 02:49:34 17° NW 02:51:45 23° NNW 02:55:28 10° NE visible
20 Jun 9.8 04:32:15 10° NW 04:35:13 16° N 04:38:11 10° NE visible
21 Jun 8.5 01:36:01 37° N 01:36:01 37° N 01:39:38 10° NE visible
21 Jun 9.7 03:15:15 10° NW 03:18:24 18° N 03:21:34 10° NE visible
21 Jun 9.7 04:58:35 10° NW 05:01:57 19° NNE 05:05:19 10° ENE visible
22 Jun 9.1 00:22:16 20° NE 00:22:16 20° NE 00:23:43 10° NE visible
22 Jun 9.2 01:59:51 19° NW 02:01:42 24° NNW 02:05:31 10° NE visible
22 Jun 9.9 03:42:12 10° NW 03:45:10 16° N 03:48:08 10° NE visible
22 Jun 9.3 05:24:32 10° NW 05:28:33 28° NNE 05:32:32 10° E visible
23 Jun 8.3 00:45:39 41° NNW 00:45:39 41° NNW 00:49:41 10° NE visible
23 Jun 9.7 02:25:07 10° NW 02:28:21 18° N 02:31:34 10° NE visible
23 Jun 9.8 04:08:35 10° NW 04:11:54 19° NNE 04:15:13 10° ENE visible
23 Jun9.621:52:40ENE21:52:40ENE21:43:49Svisible
23 Jun 7.4 23:29:59 57° ENE 23:29:59 57° ENE 23:33:44 10° NE visible
24 Jun 9.2 01:07:45 10° WNW 01:11:40 25° NNW 01:15:33 10° NE visible
24 Jun 9.9 02:52:08 10° NW 02:55:06 16° N 02:58:05 10° NE visible
24 Jun 9.3 04:34:34 10° NW 04:38:31 27° NNE 04:42:27 10° E visible
24 Jun 7.7 22:08:51 10° SSW 22:13:07 33° SE 22:17:20 10° ENE visible
24 Jun 8.1 23:50:41 10° WSW 23:55:13 45° NNW 23:59:43 10° NE visible
25 Jun 9.8 01:35:01 10° NW 01:38:17 19° N 01:41:35 10° NE visible
25 Jun 9.8 03:18:34 10° NW 03:21:51 19° N 03:25:08 10° NE visible
25 Jun 8.3 05:00:27 10° NW 05:04:56 46° NNE 05:09:22 10° ESE visible
25 Jun 7.0 22:34:18 10° SW 22:39:02 80° SE 22:43:45 10° NE visible
26 Jun 9.2 00:17:38 10° W 00:21:38 27° NNW 00:25:36 10° NE visible
26 Jun 10.0 02:02:03 10° NW 02:05:03 17° N 02:08:02 10° NE visible
26 Jun 9.3 03:44:35 10° NW 03:48:29 26° NNE 03:52:21 10° ENE visible
26 Jun 7.1 05:26:27 10° NW 05:31:06 84° SW 05:35:42 10° SE visible
26 Jun 7.9 21:18:59 10° SSW 21:23:09 31° SE 21:27:17 10° ENE visible
26 Jun 8.1 23:00:37 10° WSW 23:05:12 49° NNW 23:09:46 10° NE visible
27 Jun 9.8 00:44:53 10° WNW 00:48:15 19° NNW 00:51:36 10° NE visible
27 Jun 9.8 02:28:33 10° NW 02:31:48 18° N 02:35:02 10° NE visible
27 Jun 8.3 04:10:29 10° NW 04:14:55 43° NNE 04:19:19 10° ESE visible
27 Jun 7.1 21:44:19 10° SW 21:49:03 74° SE 21:53:45 10° ENE visible
27 Jun 9.2 23:27:31 10° W 23:31:35 28° NNW 23:35:38 10° NE visible
28 Jun 10.0 01:11:58 10° NW 01:14:59 17° N 01:18:00 10° NE visible
28 Jun 9.4 02:54:37 10° NW 02:58:27 25° NNE 03:02:16 10° ENE visible
28 Jun 7.0 04:36:27 10° NW 04:41:07 90° NE 04:45:44 10° SE visible
28 Jun 8.0 22:10:33 10° WSW 22:15:11 52° NNW 22:19:48 10° NE visible
